Torna al catalogo

CZ-6A DEB

AttivoPO
NORAD 61462·DEBRIS·🇨🇳 China

Lanciato Aug 6, 2024 da Taiyuan Satellite Launch Center

Loading…

Prossimi Passaggi (prossime 24 ore)

TLE

AggiornatoSource: Space-Track

Epoca: Sep 12, 2026, 12:06 UTC

1 61462U 24140ZU  26255.50429289  .00002231  00000-0  83842-3 0  9995
2 61462  89.1123 274.3915 0074053 299.8144  59.5703 14.29791898104071

Traccia CZ-6A DEB in tempo reale con AllMySat

Download on the App Store